| time (UTC) | temp F | wind direction | speed knots | gust knots | rain 1hr in | rain 24hr in | rain mn in | humidity % | barometer mb |
| 20260503072103 | 36 | 260 | 1.7 | 4.3 | 0.00 | 0.00 | 0.00 | 60 | 1007.9 |
| 20260503071604 | 36 | 244 | 1.7 | 7.0 | 0.00 | 0.00 | 0.00 | 57 | 1007.8 |
| 20260503071104 | 37 | 309 | 1.7 | 7.0 | 0.00 | 0.00 | 0.00 | 57 | 1007.8 |
| 20260503070603 | 38 | 340 | 0.9 | 7.0 | 0.00 | 0.00 | 0.00 | 57 | 1007.7 |
| 20260503070104 | 37 | 319 | 0.9 | 2.6 | 0.00 | 0.00 | 0.00 | 61 | 1007.7 |
| 20260503060104 | 34 | 0 | 0.9 | 4.3 | 0.00 | 0.00 | 0.00 | 66 | 1007.4 |
| 20260503055104 | 34 | 0 | 2.6 | 5.2 | 0.00 | 0.00 | 0.00 | 66 | 1007.3 |
| 20260503054604 | 34 | 0 | 2.6 | 7.0 | 0.00 | 0.00 | 0.00 | 67 | 1007.2 |
| 20260503054104 | 34 | 0 | 3.5 | 6.1 | 0.00 | 0.00 | 0.00 | 67 | 1007.2 |
| 20260503053604 | 34 | 0 | 3.5 | 7.8 | 0.00 | 0.00 | 0.00 | 67 | 1007.2 |
| 20260503053104 | 34 | 0 | 2.6 | 6.1 | 0.00 | 0.00 | 0.00 | 67 | 1007.2 |
| 20260503052604 | 33 | 0 | 0.9 | 2.6 | 0.00 | 0.00 | 0.00 | 67 | 1007.2 |
| 20260503052104 | 33 | 0 | 0.9 | 2.6 | 0.00 | 0.00 | 0.00 | 68 | 1007.2 |
| 20260503051603 | 33 | 0 | 0.9 | 2.6 | 0.00 | 0.00 | 0.00 | 68 | 1007.2 |
| 20260503051103 | 33 | 0 | 1.7 | 5.2 | 0.00 | 0.00 | 0.00 | 68 | 1007.2 |
| 20260503050604 | 33 | 0 | 1.7 | 5.2 | 0.00 | 0.00 | 0.00 | 68 | 1007.3 |
| 20260503050105 | 33 | 0 | 0.0 | 5.2 | 0.00 | 0.00 | 0.00 | 68 | 1007.3 |
| 20260503045603 | 33 | 0 | 2.6 | 6.1 | 0.00 | 0.00 | 0.00 | 68 | 1007.3 |
| 20260503045103 | 33 | 0 | 1.7 | 4.3 | 0.00 | 0.00 | 0.00 | 67 | 1007.3 |
| 20260503044604 | 34 | 0 | 0.9 | 2.6 | 0.00 | 0.00 | 0.00 | 66 | 1007.3 |
| 20260503044104 | 34 | 287 | 0.9 | 4.3 | 0.00 | 0.00 | 0.00 | 67 | 1007.2 |
| 20260503043604 | 33 | 0 | 0.9 | 2.6 | 0.00 | 0.00 | 0.00 | 69 | 1007.2 |
| 20260503043104 | 33 | 0 | 0.9 | 4.3 | 0.00 | 0.00 | 0.00 | 68 | 1007.0 |
| 20260503042604 | 33 | 0 | 1.7 | 5.2 | 0.00 | 0.00 | 0.00 | 68 | 1007.0 |
| 20260503042103 | 33 | 0 | 2.6 | 7.0 | 0.00 | 0.00 | 0.00 | 69 | 1006.8 |
| 20260503041604 | 33 | 0 | 2.6 | 5.2 | 0.00 | 0.00 | 0.00 | 70 | 1006.8 |
| 20260503041103 | 33 | 288 | 0.9 | 1.7 | 0.00 | 0.00 | 0.00 | 71 | 1006.8 |
| 20260503040605 | 32 | 0 | 0.9 | 0.9 | 0.00 | 0.00 | 0.00 | 72 | 1006.8 |
| 20260503040103 | 32 | 0 | 2.6 | 7.0 | 0.00 | 0.00 | 0.00 | 72 | 1006.7 |
| 20260503035604 | 31 | 0 | 2.6 | 10.4 | 0.00 | 0.00 | 0.00 | 72 | 1006.6 |
| 20260503035104 | 31 | 0 | 2.6 | 7.0 | 0.00 | 0.00 | 0.00 | 74 | 1006.6 |
| 20260503034603 | 31 | 0 | 1.7 | 7.8 | 0.00 | 0.00 | 0.00 | 74 | 1006.6 |
| 20260503034103 | 31 | 0 | 4.3 | 8.7 | 0.00 | 0.00 | 0.00 | 76 | 1006.5 |
| 20260503033604 | 31 | 0 | 4.3 | 7.0 | 0.00 | 0.00 | 0.00 | 77 | 1006.6 |
| 20260503033104 | 31 | 0 | 2.6 | 7.0 | 0.00 | 0.00 | 0.00 | 77 | 1006.6 |
| 20260503032604 | 31 | 0 | 2.6 | 7.8 | 0.00 | 0.00 | 0.00 | 77 | 1006.4 |
| 20260503032103 | 31 | 0 | 3.5 | 7.8 | 0.00 | 0.00 | 0.00 | 78 | 1006.4 |
| 20260503031604 | 31 | 0 | 4.3 | 7.0 | 0.00 | 0.00 | 0.00 | 78 | 1006.4 |
| 20260503031104 | 31 | 0 | 3.5 | 7.8 | 0.00 | 0.00 | 0.00 | 79 | 1006.4 |
| 20260503030604 | 31 | 0 | 4.3 | 7.0 | 0.00 | 0.00 | 0.00 | 80 | 1006.4 |
| 20260503030104 | 31 | 0 | 3.5 | 6.1 | 0.00 | 0.00 | 0.00 | 80 | 1006.4 |
| 20260503025603 | 31 | 0 | 2.6 | 6.1 | 0.00 | 0.00 | 0.00 | 81 | 1006.4 |
| 20260503025104 | 31 | 0 | 2.6 | 7.0 | 0.00 | 0.00 | 0.00 | 81 | 1006.4 |
| 20260503024604 | 32 | 0 | 2.6 | 5.2 | 0.00 | 0.00 | 0.00 | 80 | 1006.4 |
| 20260503024103 | 32 | 0 | 0.9 | 7.8 | 0.00 | 0.00 | 0.00 | 79 | 1006.4 |
| 20260503023604 | 32 | 0 | 1.7 | 4.3 | 0.00 | 0.00 | 0.00 | 79 | 1006.4 |
| 20260503023104 | 32 | 0 | 2.6 | 4.3 | 0.00 | 0.00 | 0.00 | 79 | 1006.2 |
| 20260503022604 | 31 | 0 | 1.7 | 7.0 | 0.00 | 0.00 | 0.00 | 81 | 1006.3 |
| 20260503022104 | 31 | 0 | 3.5 | 7.8 | 0.00 | 0.00 | 0.00 | 81 | 1006.2 |
| 20260503021604 | 31 | 0 | 3.5 | 7.0 | 0.00 | 0.00 | 0.00 | 81 | 1006.0 |
| 20260503021103 | 31 | 0 | 1.7 | 5.2 | 0.00 | 0.00 | 0.00 | 80 | 1006.0 |
| 20260503020603 | 30 | 0 | 4.3 | 10.4 | 0.00 | 0.00 | 0.00 | 80 | 1006.0 |
| 20260503020104 | 30 | 0 | 4.3 | 7.0 | 0.00 | 0.00 | 0.00 | 79 | 1006.0 |
| 20260503015604 | 30 | 0 | 3.5 | 5.2 | 0.00 | 0.00 | 0.00 | 79 | 1005.9 |
| 20260503015104 | 30 | 0 | 2.6 | 5.2 | 0.00 | 0.00 | 0.00 | 79 | 1005.9 |
| 20260503014604 | 30 | 0 | 2.6 | 5.2 | 0.00 | 0.00 | 0.00 | 79 | 1005.8 |
| 20260503014104 | 30 | 0 | 1.7 | 7.0 | 0.00 | 0.00 | 0.00 | 79 | 1005.8 |
| 20260503013604 | 30 | 0 | 1.7 | 4.3 | 0.00 | 0.00 | 0.00 | 79 | 1005.8 |
| 20260503013104 | 29 | 0 | 0.9 | 2.6 | 0.00 | 0.00 | 0.00 | 80 | 1005.8 |
| 20260503012604 | 29 | 0 | 0.9 | 2.6 | 0.00 | 0.00 | 0.00 | 80 | 1005.8 |
| 20260503012104 | 29 | 0 | 0.9 | 1.7 | 0.00 | 0.00 | 0.00 | 80 | 1005.7 |
| 20260503011603 | 29 | 0 | 0.9 | 1.7 | 0.00 | 0.00 | 0.00 | 80 | 1005.8 |
| 20260503011104 | 29 | 0 | 0.9 | 1.7 | 0.00 | 0.00 | 0.00 | 80 | 1005.7 |
| 20260503010603 | 29 | 0 | 1.7 | 2.6 | 0.00 | 0.00 | 0.00 | 80 | 1005.7 |
| 20260503010104 | 29 | 0 | 0.0 | 0.9 | 0.00 | 0.00 | 0.00 | 79 | 1005.7 |
| 20260503005604 | 30 | 0 | 0.0 | 2.6 | 0.00 | 0.00 | 0.00 | 78 | 1005.6 |
| 20260503005104 | 30 | 0 | 0.0 | 0.9 | 0.00 | 0.00 | 0.00 | 77 | 1005.6 |
| 20260503004604 | 30 | 0 | 1.7 | 2.6 | 0.00 | 0.00 | 0.00 | 76 | 1005.5 |
| 20260503004104 | 31 | 0 | 0.9 | 4.3 | 0.00 | 0.00 | 0.00 | 77 | 1005.4 |
| 20260503003604 | 31 | 0 | 1.7 | 5.2 | 0.00 | 0.00 | 0.00 | 77 | 1005.3 |
| 20260503003104 | 31 | 0 | 2.6 | 5.2 | 0.00 | 0.00 | 0.00 | 77 | 1005.3 |
| 20260503002603 | 31 | 0 | 4.3 | 7.8 | 0.00 | 0.00 | 0.00 | 76 | 1005.4 |
| 20260503002104 | 31 | 0 | 3.5 | 7.8 | 0.00 | 0.00 | 0.00 | 76 | 1005.4 |
| 20260503001604 | 31 | 0 | 4.3 | 8.7 | 0.00 | 0.00 | 0.00 | 76 | 1005.4 |
| 20260503001104 | 31 | 0 | 3.5 | 8.7 | 0.00 | 0.00 | 0.00 | 77 | 1005.3 |
| 20260503000604 | 31 | 0 | 2.6 | 10.4 | 0.00 | 0.00 | 0.00 | 77 | 1005.2 |
| 20260503000103 | 31 | 0 | 2.6 | 5.2 | 0.00 | 0.00 | 0.00 | 77 | 1005.1 |
| 20260502235604 | 31 | 0 | 3.5 | 6.1 | 0.00 | 0.00 | 0.00 | 77 | 1005.2 |
| 20260502235104 | 31 | 0 | 2.6 | 8.7 | 0.00 | 0.00 | 0.00 | 77 | 1005.1 |
| 20260502234604 | 31 | 0 | 2.6 | 7.8 | 0.00 | 0.00 | 0.00 | 76 | 1005.2 |
| 20260502234106 | 31 | 0 | 2.6 | 7.0 | 0.00 | 0.00 | 0.00 | 76 | 1005.2 |
| 20260502233604 | 31 | 0 | 2.6 | 7.0 | 0.00 | 0.00 | 0.00 | 76 | 1005.2 |
| 20260502233104 | 31 | 0 | 2.6 | 6.1 | 0.00 | 0.00 | 0.00 | 76 | 1005.2 |
| 20260502232604 | 31 | 0 | 4.3 | 10.4 | 0.00 | 0.00 | 0.00 | 76 | 1005.3 |
| 20260502232103 | 31 | 0 | 2.6 | 7.0 | 0.00 | 0.00 | 0.00 | 77 | 1005.3 |
| 20260502231603 | 31 | 0 | 2.6 | 5.2 | 0.00 | 0.00 | 0.00 | 76 | 1005.3 |
| 20260502231103 | 31 | 0 | 1.7 | 2.6 | 0.00 | 0.00 | 0.00 | 76 | 1005.3 |
| 20260502230604 | 31 | 0 | 0.9 | 4.3 | 0.00 | 0.00 | 0.00 | 75 | 1005.3 |
| 20260502230104 | 31 | 0 | 2.6 | 5.2 | 0.00 | 0.00 | 0.00 | 76 | 1005.3 |
| 20260502225604 | 31 | 0 | 2.6 | 6.1 | 0.00 | 0.00 | 0.00 | 76 | 1005.3 |
| 20260502225104 | 31 | 0 | 1.7 | 5.2 | 0.00 | 0.00 | 0.00 | 75 | 1005.3 |
| 20260502224604 | 31 | 0 | 1.7 | 5.2 | 0.00 | 0.00 | 0.00 | 75 | 1005.3 |
| 20260502224104 | 31 | 0 | 2.6 | 6.1 | 0.00 | 0.00 | 0.00 | 75 | 1005.3 |
| 20260502223604 | 31 | 0 | 2.6 | 7.0 | 0.00 | 0.00 | 0.00 | 75 | 1005.3 |
| 20260502223104 | 31 | 0 | 2.6 | 4.3 | 0.00 | 0.00 | 0.00 | 74 | 1005.4 |
| 20260502222603 | 31 | 0 | 2.6 | 7.0 | 0.00 | 0.00 | 0.00 | 74 | 1005.5 |
| 20260502222103 | 31 | 0 | 2.6 | 6.1 | 0.00 | 0.00 | 0.00 | 74 | 1005.5 |
| 20260502221603 | 31 | 0 | 1.7 | 2.6 | 0.00 | 0.00 | 0.00 | 74 | 1005.4 |
| 20260502221107 | 31 | 0 | 1.7 | 6.1 | 0.00 | 0.00 | 0.00 | 74 | 1005.4 |
| 20260502220604 | 31 | 0 | 1.7 | 2.6 | 0.00 | 0.00 | 0.00 | 74 | 1005.3 |
| 20260502220104 | 31 | 0 | 2.6 | 4.3 | 0.00 | 0.00 | 0.00 | 73 | 1005.4 |
| 20260502215603 | 32 | 0 | 1.7 | 5.2 | 0.00 | 0.00 | 0.00 | 72 | 1005.5 |
| 20260502215104 | 32 | 0 | 1.7 | 4.3 | 0.00 | 0.00 | 0.00 | 72 | 1005.6 |
| 20260502214604 | 32 | 0 | 1.7 | 7.0 | 0.00 | 0.00 | 0.00 | 72 | 1005.5 |
| 20260502214104 | 32 | 0 | 2.6 | 7.0 | 0.00 | 0.00 | 0.00 | 72 | 1005.4 |
| 20260502213603 | 32 | 0 | 3.5 | 6.1 | 0.00 | 0.00 | 0.00 | 72 | 1005.4 |
| 20260502213104 | 32 | 0 | 2.6 | 5.2 | 0.00 | 0.00 | 0.00 | 73 | 1005.4 |
| 20260502212604 | 32 | 0 | 1.7 | 6.1 | 0.00 | 0.00 | 0.00 | 73 | 1005.4 |
| 20260502212104 | 32 | 0 | 1.7 | 4.3 | 0.00 | 0.00 | 0.00 | 72 | 1005.4 |
| 20260502211604 | 33 | 0 | 2.6 | 5.2 | 0.00 | 0.00 | 0.00 | 72 | 1005.4 |
| 20260502211104 | 33 | 0 | 2.6 | 5.2 | 0.00 | 0.00 | 0.00 | 72 | 1005.4 |
| 20260502210603 | 33 | 0 | 1.7 | 4.3 | 0.00 | 0.00 | 0.00 | 71 | 1005.5 |
| 20260502210104 | 33 | 0 | 1.7 | 2.6 | 0.00 | 0.00 | 0.00 | 70 | 1005.4 |
| 20260502205604 | 34 | 0 | 1.7 | 5.2 | 0.00 | 0.00 | 0.00 | 69 | 1005.4 |
| 20260502205104 | 34 | 0 | 2.6 | 6.1 | 0.00 | 0.00 | 0.00 | 68 | 1005.4 |
| 20260502204604 | 34 | 0 | 3.5 | 7.8 | 0.00 | 0.00 | 0.00 | 68 | 1005.4 |
| 20260502204104 | 34 | 0 | 2.6 | 7.0 | 0.00 | 0.00 | 0.00 | 68 | 1005.4 |
| 20260502203604 | 35 | 0 | 1.7 | 4.3 | 0.00 | 0.00 | 0.00 | 67 | 1005.5 |
| 20260502203104 | 35 | 0 | 2.6 | 6.1 | 0.00 | 0.00 | 0.00 | 67 | 1005.5 |
| 20260502202604 | 35 | 0 | 4.3 | 8.7 | 0.00 | 0.00 | 0.00 | 67 | 1005.4 |
| 20260502202104 | 35 | 0 | 5.2 | 10.4 | 0.00 | 0.00 | 0.00 | 68 | 1005.2 |
| 20260502201603 | 35 | 0 | 4.3 | 8.7 | 0.00 | 0.00 | 0.00 | 68 | 1005.3 |
| 20260502201103 | 35 | 0 | 6.1 | 13.9 | 0.00 | 0.00 | 0.00 | 68 | 1005.3 |
| 20260502200604 | 35 | 0 | 2.6 | 6.1 | 0.00 | 0.00 | 0.00 | 68 | 1005.3 |
| 20260502200104 | 35 | 0 | 4.3 | 7.0 | 0.00 | 0.00 | 0.00 | 67 | 1005.3 |
| 20260502195604 | 35 | 0 | 4.3 | 10.4 | 0.00 | 0.00 | 0.00 | 66 | 1005.3 |
| 20260502195103 | 36 | 0 | 2.6 | 5.2 | 0.00 | 0.00 | 0.00 | 65 | 1005.3 |
| 20260502194604 | 36 | 0 | 2.6 | 5.2 | 0.00 | 0.00 | 0.00 | 64 | 1005.3 |
| 20260502194104 | 36 | 0 | 2.6 | 5.2 | 0.00 | 0.00 | 0.00 | 63 | 1005.4 |
| 20260502193603 | 36 | 0 | 3.5 | 6.1 | 0.00 | 0.00 | 0.00 | 62 | 1005.4 |
| 20260502193104 | 36 | 0 | 2.6 | 5.2 | 0.00 | 0.00 | 0.00 | 61 | 1005.4 |
| 20260502192604 | 37 | 0 | 2.6 | 5.2 | 0.00 | 0.00 | 0.00 | 60 | 1005.4 |
| 20260502192104 | 37 | 0 | 4.3 | 7.0 | 0.00 | 0.00 | 0.00 | 59 | 1005.2 |
| 20260502191604 | 37 | 0 | 4.3 | 7.0 | 0.00 | 0.00 | 0.00 | 59 | 1005.2 |
| 20260502191104 | 37 | 0 | 4.3 | 7.8 | 0.00 | 0.00 | 0.00 | 58 | 1005.2 |
| 20260502190603 | 37 | 0 | 4.3 | 10.4 | 0.00 | 0.00 | 0.00 | 58 | 1005.1 |
| 20260502190104 | 38 | 0 | 4.3 | 7.8 | 0.00 | 0.00 | 0.00 | 57 | 1005.1 |
| 20260502185604 | 38 | 0 | 3.5 | 10.4 | 0.00 | 0.00 | 0.00 | 56 | 1005.0 |
| 20260502185104 | 38 | 0 | 5.2 | 8.7 | 0.00 | 0.00 | 0.00 | 56 | 1005.0 |
| 20260502184604 | 38 | 0 | 4.3 | 8.7 | 0.00 | 0.00 | 0.00 | 56 | 1005.1 |
| 20260502184104 | 38 | 0 | 3.5 | 7.8 | 0.00 | 0.00 | 0.00 | 55 | 1005.1 |
| 20260502183604 | 39 | 0 | 5.2 | 10.4 | 0.00 | 0.00 | 0.00 | 55 | 1005.0 |
| 20260502183103 | 39 | 0 | 5.2 | 10.4 | 0.00 | 0.00 | 0.00 | 55 | 1004.9 |
| 20260502182603 | 39 | 0 | 5.2 | 10.4 | 0.00 | 0.00 | 0.00 | 54 | 1004.9 |
| 20260502182104 | 39 | 0 | 6.1 | 17.4 | 0.00 | 0.00 | 0.00 | 55 | 1004.9 |
| 20260502181603 | 39 | 0 | 5.2 | 13.0 | 0.00 | 0.00 | 0.00 | 56 | 1004.9 |
| 20260502181103 | 39 | 0 | 6.1 | 11.3 | 0.00 | 0.00 | 0.00 | 55 | 1004.9 |
| 20260502180603 | 40 | 0 | 4.3 | 10.4 | 0.00 | 0.00 | 0.00 | 55 | 1004.9 |
| 20260502180104 | 40 | 0 | 6.1 | 12.2 | 0.00 | 0.00 | 0.00 | 55 | 1004.8 |
| 20260502170103 | 41 | 0 | 6.1 | 11.3 | 0.00 | 0.00 | 0.00 | 51 | 1005.0 |
| 20260502164104 | 42 | 0 | 2.6 | 7.0 | 0.00 | 0.00 | 0.00 | 49 | 1005.0 |
| 20260502163604 | 42 | 258 | 5.2 | 14.8 | 0.00 | 0.00 | 0.00 | 48 | 1005.0 |
| 20260502163104 | 42 | 261 | 7.0 | 13.9 | 0.00 | 0.00 | 0.00 | 49 | 1005.0 |
| 20260502162604 | 42 | 267 | 7.8 | 13.9 | 0.00 | 0.00 | 0.00 | 49 | 1005.0 |
| 20260502162104 | 42 | 258 | 8.7 | 17.4 | 0.00 | 0.00 | 0.00 | 50 | 1005.0 |
| 20260502161603 | 42 | 267 | 7.0 | 13.0 | 0.00 | 0.00 | 0.00 | 50 | 1005.1 |
| 20260502161104 | 42 | 282 | 7.8 | 15.6 | 0.00 | 0.00 | 0.00 | 50 | 1005.1 |
| 20260502160603 | 42 | 256 | 4.3 | 12.2 | 0.00 | 0.00 | 0.00 | 49 | 1005.1 |
| 20260502160103 | 42 | 275 | 6.1 | 13.9 | 0.00 | 0.00 | 0.00 | 48 | 1005.1 |
| 20260502152104 | 44 | 0 | 4.3 | 10.4 | 0.00 | 0.00 | 0.00 | 47 | 1005.0 |
| 20260502151604 | 44 | 0 | 5.2 | 15.6 | 0.00 | 0.00 | 0.00 | 47 | 1005.1 |
| 20260502151103 | 44 | 0 | 4.3 | 14.8 | 0.00 | 0.00 | 0.00 | 47 | 1005.1 |
| 20260502150604 | 44 | 0 | 9.6 | 17.4 | 0.00 | 0.00 | 0.00 | 46 | 1005.0 |
| 20260502150104 | 45 | 0 | 5.2 | 15.6 | 0.00 | 0.00 | 0.00 | 50 | 1005.1 |
| 20260502140104 | 47 | 340 | 4.3 | 14.8 | 0.00 | 0.00 | 0.00 | 42 | 1005.0 |
| 20260502130603 | 49 | 0 | 7.8 | 18.2 | 0.00 | 0.00 | 0.00 | 42 | 1004.8 |
| 20260502130104 | 49 | 267 | 6.1 | 14.8 | 0.00 | 0.00 | 0.00 | 44 | 1004.8 |
| 20260502123604 | 45 | 266 | 2.6 | 11.3 | 0.00 | 0.00 | 0.00 | 55 | 1004.7 |
| 20260502123104 | 45 | 316 | 1.7 | 6.1 | 0.00 | 0.00 | 0.00 | 61 | 1004.5 |
| 20260502122603 | 45 | 319 | 2.6 | 7.8 | 0.00 | 0.00 | 0.00 | 60 | 1004.6 |
| 20260502122104 | 45 | 324 | 2.6 | 5.2 | 0.00 | 0.00 | 0.00 | 60 | 1004.6 |
| 20260502121604 | 45 | 313 | 3.5 | 6.1 | 0.00 | 0.00 | 0.00 | 59 | 1004.5 |
| 20260502121104 | 47 | 307 | 3.5 | 12.2 | 0.00 | 0.00 | 0.00 | 57 | 1004.5 |
| 20260502120603 | 49 | 278 | 2.6 | 13.9 | 0.00 | 0.00 | 0.00 | 52 | 1004.4 |
| 20260502120104 | 49 | 264 | 7.8 | 18.2 | 0.00 | 0.00 | 0.00 | 47 | 1004.2 |
| 20260502115604 | 49 | 292 | 5.2 | 14.8 | 0.00 | 0.00 | 0.00 | 48 | 1004.2 |
| 20260502115104 | 49 | 246 | 4.3 | 12.2 | 0.00 | 0.00 | 0.00 | 51 | 1004.2 |
| 20260502114104 | 48 | 15 | 0.9 | 5.2 | 0.00 | 0.00 | 0.00 | 58 | 1004.1 |
| 20260502113604 | 49 | 326 | 0.9 | 7.8 | 0.00 | 0.00 | 0.00 | 58 | 1004.3 |
| 20260502113104 | 49 | 349 | 4.3 | 8.7 | 0.00 | 0.00 | 0.00 | 58 | 1004.3 |
| 20260502112604 | 49 | 282 | 2.6 | 7.8 | 0.00 | 0.00 | 0.00 | 56 | 1004.2 |
| 20260502112103 | 49 | 330 | 5.2 | 13.0 | 0.00 | 0.00 | 0.00 | 53 | 1004.2 |
| 20260502111604 | 48 | 0 | 9.6 | 17.4 | 0.00 | 0.00 | 0.00 | 55 | 1004.1 |
| 20260502111104 | 49 | 257 | 6.1 | 13.9 | 0.00 | 0.00 | 0.00 | 55 | 1004.0 |
| 20260502110604 | 50 | 263 | 7.8 | 17.4 | 0.00 | 0.00 | 0.00 | 55 | 1004.0 |
| 20260502110104 | 51 | 275 | 8.7 | 17.4 | 0.00 | 0.00 | 0.00 | 53 | 1003.9 |
| 20260502105603 | 50 | 273 | 6.1 | 11.3 | 0.00 | 0.00 | 0.00 | 57 | 1003.9 |
| 20260502105104 | 50 | 264 | 8.7 | 17.4 | 0.00 | 0.00 | 0.00 | 53 | 1003.8 |
| 20260502104604 | 50 | 256 | 9.6 | 17.4 | 0.00 | 0.00 | 0.00 | 54 | 1003.8 |
| 20260502104104 | 50 | 254 | 5.2 | 12.2 | 0.00 | 0.00 | 0.00 | 61 | 1003.8 |
| 20260502103604 | 48 | 241 | 5.2 | 13.0 | 0.00 | 0.00 | 0.00 | 65 | 1003.7 |
| 20260502103104 | 48 | 237 | 3.5 | 7.0 | 0.00 | 0.00 | 0.00 | 66 | 1003.7 |
| 20260502102603 | 50 | 268 | 2.6 | 7.8 | 0.00 | 0.00 | 0.00 | 64 | 1003.8 |
| 20260502102104 | 50 | 272 | 2.6 | 13.9 | 0.00 | 0.00 | 0.00 | 63 | 1003.8 |
| 20260502101103 | 48 | 0 | 8.7 | 15.6 | 0.00 | 0.00 | 0.00 | 63 | 1003.6 |
| 20260502100603 | 48 | 0 | 9.6 | 15.6 | 0.00 | 0.00 | 0.00 | 63 | 1003.6 |
| 20260502100104 | 47 | 0 | 6.1 | 15.6 | 0.00 | 0.00 | 0.00 | 65 | 1003.6 |
| 20260502091104 | 46 | 0 | 7.0 | 12.2 | 0.00 | 0.00 | 0.00 | 69 | 1003.3 |
| 20260502090603 | 46 | 0 | 5.2 | 13.9 | 0.00 | 0.00 | 0.00 | 69 | 1003.5 |
| 20260502090104 | 47 | 255 | 6.1 | 11.3 | 0.00 | 0.00 | 0.00 | 69 | 1003.4 |
| 20260502080103 | 46 | 0 | 5.2 | 10.4 | 0.00 | 0.00 | 0.00 | 69 | 1003.2 |